Date String (YYYY-MM-DD hh:mm:ss) UTC,Instrument flags,Ambient pressure (hPa),Sample flow (lpm),Bypass flow (lpm),Sample temperature (°C),Ambient temperature (°C),ASC tube jacket temperature (°C),LED temperature (°C),Box temperature (°C),Sample RH (%),Mass concentration (μg/m³),Mass concentration (μg/m³)
DateTimeUTC,F1_M11,P_M11,Q1_M11,Q2_M11,T1_M11,T2_M11,T3_M11,T4_M11,T5_M11,U1_M11,X0_M11,X2_M11
2021-08-12 13:00:00,FlowAlarm;OPCInstrumentWarning,0830.9,4.99,0.00,29.9,29.2,00.0,39.0,31.9,15.5,0035.03,0023.56
2021-08-12 13:01:00,FlowAlarm;OPCInstrumentWarning,0830.9,5.02,0.00,29.9,29.2,00.0,39.0,31.9,15.5,0036.07,0023.59
2021-08-12 13:02:00,FlowAlarm;OPCInstrumentWarning,0831.0,4.99,0.00,30.0,29.2,00.0,39.0,31.9,15.7,0036.64,0023.62
2021-08-12 13:03:00,FlowAlarm;OPCInstrumentWarning,0831.1,5.02,0.00,30.0,29.3,00.0,39.1,31.9,15.6,0036.29,0023.61
2021-08-12 13:04:00,FlowAlarm;OPCInstrumentWarning,0831.0,4.99,0.00,30.0,29.3,00.0,39.1,32.0,15.7,0036.32,0023.71
2021-08-12 13:05:00,FlowAlarm;OPCInstrumentWarning,0831.0,5.00,0.00,30.1,29.3,00.0,39.1,32.0,15.7,0036.63,0023.74
2021-08-12 13:06:00,FlowAlarm;OPCInstrumentWarning,0831.0,5.00,0.00,30.1,28.6,00.0,39.1,31.8,15.4,0036.42,0023.71
2021-08-12 13:07:00,FlowAlarm;OPCInstrumentWarning,0831.0,5.00,0.00,29.9,26.9,00.0,39.1,31.4,15.9,0035.78,0023.59
2021-08-12 13:08:00,FlowAlarm;OPCInstrumentWarning,0831.1,5.00,0.00,29.8,26.7,00.0,39.1,31.3,15.5,0035.61,0023.51
2021-08-12 13:09:00,FlowAlarm;OPCInstrumentWarning,0831.1,5.00,0.00,29.7,27.0,00.0,39.0,31.3,15.7,0035.47,0023.39
2021-08-12 13:10:00,FlowAlarm;OPCInstrumentWarning,0831.1,5.00,0.00,29.7,27.4,00.0,39.0,31.4,15.7,0035.78,0023.37
2021-08-12 13:11:00,FlowAlarm;OPCInstrumentWarning,0831.1,4.98,0.00,29.6,27.7,00.0,39.0,31.4,15.5,0034.88,0023.25
2021-08-12 13:12:00,FlowAlarm;OPCInstrumentWarning,0831.1,5.00,0.00,29.6,27.9,00.0,39.0,31.5,15.2,0032.81,0023.07
2021-08-12 13:13:00,FlowAlarm;OPCInstrumentWarning,0831.1,5.00,0.00,29.6,28.2,00.0,38.9,31.5,15.7,0032.15,0022.92
2021-08-12 13:14:00,FlowAlarm;OPCInstrumentWarning,0831.2,4.99,0.00,29.6,28.3,00.0,38.9,31.6,16.1,0032.20,0022.80
2021-08-12 13:15:00,FlowAlarm;OPCInstrumentWarning,0831.2,5.00,0.00,29.7,28.5,00.0,38.9,31.6,16.5,0031.60,0022.59
2021-08-12 13:16:00,FlowAlarm;OPCInstrumentWarning,0831.2,5.01,0.00,29.7,28.6,00.0,38.9,31.6,16.6,0031.01,0022.39
2021-08-12 13:17:00,FlowAlarm;OPCInstrumentWarning,0831.2,5.01,0.00,29.7,28.7,00.0,38.9,31.6,16.2,0031.14,0022.30
2021-08-12 13:18:00,FlowAlarm;OPCInstrumentWarning,0831.2,5.00,0.00,29.7,28.8,00.0,38.9,31.7,15.9,0031.54,0022.24
2021-08-12 13:19:00,FlowAlarm;OPCInstrumentWarning,0831.2,5.00,0.00,29.8,28.8,00.0,39.0,31.7,15.9,0031.46,0022.15
2021-08-12 13:20:00,FlowAlarm;OPCInstrumentWarning,0831.2,5.00,0.00,29.8,28.9,00.0,39.0,31.7,15.8,0031.95,0022.12
2021-08-12 13:21:00,FlowAlarm;OPCInstrumentWarning,0831.2,4.99,0.00,29.8,29.0,00.0,39.0,31.8,15.8,0032.26,0022.03
2021-08-12 13:22:00,FlowAlarm;OPCInstrumentWarning,0831.2,5.01,0.00,29.8,29.0,00.0,39.0,31.8,15.6,0032.61,0021.98
2021-08-12 13:23:00,FlowAlarm;OPCInstrumentWarning,0831.2,4.99,0.00,29.9,29.1,00.0,39.0,31.9,15.5,0034.64,0021.98
2021-08-12 13:24:00,FlowAlarm;OPCInstrumentWarning,0831.2,5.01,0.00,29.9,29.1,00.0,39.0,31.9,15.6,0034.28,0021.92
2021-08-12 13:25:00,FlowAlarm;OPCInstrumentWarning,0831.2,4.99,0.00,29.9,29.2,00.0,39.0,31.9,15.4,0033.63,0021.84
2021-08-12 13:26:00,FlowAlarm;OPCInstrumentWarning,0831.2,5.01,0.00,30.0,29.2,00.0,39.1,31.9,15.2,0033.92,0021.81
2021-08-12 13:27:00,FlowAlarm;OPCInstrumentWarning,0831.2,4.99,0.00,30.0,29.2,00.0,39.1,32.0,14.7,0034.99,0021.81
2021-08-12 13:28:00,FlowAlarm;OPCInstrumentWarning,0831.3,5.01,0.00,30.0,29.2,00.0,39.1,32.0,14.6,0034.57,0021.71
2021-08-12 13:29:00,FlowAlarm;OPCInstrumentWarning,0831.2,4.99,0.00,30.0,29.3,00.0,39.1,32.0,15.3,0034.16,0021.63
2021-08-12 13:30:00,FlowAlarm;OPCInstrumentWarning,0831.2,5.00,0.00,30.1,29.3,00.0,39.2,32.0,15.5,0034.01,0021.54
2021-08-12 13:31:00,FlowAlarm;OPCInstrumentWarning,0831.3,5.00,0.00,30.1,29.3,00.0,39.2,32.0,15.6,0034.08,0021.47
2021-08-12 13:32:00,FlowAlarm;OPCInstrumentWarning,0831.3,5.00,0.00,30.1,29.0,00.0,39.2,31.9,14.3,0033.41,0021.38
2021-08-12 13:33:00,FlowAlarm;OPCInstrumentWarning,0831.2,5.00,0.00,30.0,27.1,00.0,39.1,31.5,14.4,0033.93,0021.36
2021-08-12 13:34:00,FlowAlarm;OPCInstrumentWarning,0831.3,5.00,0.00,29.9,26.1,00.0,39.1,31.3,14.7,0032.33,0021.33
2021-08-12 13:35:00,FlowAlarm;OPCInstrumentWarning,0831.3,5.01,0.00,29.8,26.4,00.0,39.1,31.3,14.6,0032.61,0021.34
2021-08-12 13:36:00,FlowAlarm;OPCInstrumentWarning,0831.3,5.00,0.00,29.6,26.8,00.0,39.0,31.3,15.0,0032.65,0021.33
2021-08-12 13:37:00,FlowAlarm;OPCInstrumentWarning,0831.4,5.00,0.00,29.6,27.2,00.0,39.0,31.3,14.6,0032.80,0021.40
2021-08-12 13:38:00,FlowAlarm;OPCInstrumentWarning,0831.4,5.00,0.00,29.5,27.5,00.0,38.9,31.3,14.4,0032.15,0021.47
2021-08-12 13:39:00,FlowAlarm;OPCInstrumentWarning,0831.4,5.00,0.00,29.5,27.8,00.0,38.9,31.4,14.5,0032.69,0021.54
2021-08-12 13:40:00,FlowAlarm;OPCInstrumentWarning,0831.4,5.00,0.00,29.5,28.0,00.0,38.9,31.4,14.8,0032.84,0021.59
2021-08-12 13:41:00,FlowAlarm;OPCInstrumentWarning,0831.4,4.99,0.00,29.6,28.2,00.0,38.9,31.4,14.8,0033.78,0021.60
2021-08-12 13:42:00,FlowAlarm;OPCInstrumentWarning,0831.4,5.01,0.00,29.6,28.4,00.0,38.9,31.5,15.3,0033.35,0021.62
2021-08-12 13:43:00,FlowAlarm;OPCInstrumentWarning,0831.5,4.98,0.00,29.6,28.5,00.0,38.9,31.6,14.8,0033.89,0021.69
2021-08-12 13:44:00,FlowAlarm;OPCInstrumentWarning,0831.5,5.01,0.00,29.6,28.6,00.0,38.9,31.6,16.3,0033.54,0021.71
2021-08-12 13:45:00,FlowAlarm;OPCInstrumentWarning,0831.5,4.99,0.00,29.7,28.7,00.0,38.9,31.6,16.8,0032.49,0021.75
2021-08-12 13:46:00,FlowAlarm;OPCInstrumentWarning,0831.5,5.01,0.00,29.7,28.8,00.0,38.9,31.7,17.4,0032.20,0021.76
2021-08-12 13:47:00,FlowAlarm;OPCInstrumentWarning,0831.5,4.99,0.00,29.7,28.8,00.0,38.9,31.7,16.1,0032.43,0021.88
2021-08-12 13:48:00,FlowAlarm;OPCInstrumentWarning,0831.5,5.01,0.00,29.8,28.9,00.0,38.9,31.7,15.0,0033.19,0021.90
2021-08-12 13:49:00,FlowAlarm;OPCInstrumentWarning,0831.5,5.00,0.00,29.8,29.0,00.0,38.9,31.8,14.4,0033.93,0021.85
2021-08-12 13:50:00,FlowAlarm;OPCInstrumentWarning,0831.6,4.99,0.00,29.8,29.0,00.0,38.9,31.7,14.3,0033.93,0021.92
2021-08-12 13:51:00,FlowAlarm;OPCInstrumentWarning,0831.6,5.01,0.00,29.8,29.1,00.0,39.0,31.8,14.7,0034.66,0022.01
2021-08-12 13:52:00,FlowAlarm;OPCInstrumentWarning,0831.7,5.01,0.00,29.9,29.1,00.0,39.0,31.8,14.4,0034.28,0022.10
2021-08-12 13:53:00,FlowAlarm;OPCInstrumentWarning,0831.7,4.99,0.00,29.9,29.1,00.0,39.0,31.9,15.8,0034.29,0022.19
2021-08-12 13:54:00,FlowAlarm;OPCInstrumentWarning,0831.7,5.00,0.00,29.9,29.2,00.0,39.0,31.9,15.3,0033.75,0022.26
2021-08-12 13:55:00,FlowAlarm;OPCInstrumentWarning,0831.7,5.01,0.00,30.0,29.2,00.0,39.1,32.0,14.7,0033.49,0022.31
2021-08-12 13:56:00,FlowAlarm;OPCInstrumentWarning,0831.7,4.98,0.00,30.0,29.3,00.0,39.1,32.0,14.0,0033.70,0022.34
2021-08-12 13:57:00,FlowAlarm;OPCInstrumentWarning,0831.7,5.01,0.00,30.0,29.0,00.0,39.1,31.9,13.4,0033.11,0022.26
2021-08-12 13:58:00,FlowAlarm;OPCInstrumentWarning,0831.7,4.99,0.00,30.0,27.3,00.0,39.1,31.5,13.9,0032.69,0022.20
2021-08-12 13:59:00,FlowAlarm;OPCInstrumentWarning,0831.7,5.00,0.00,29.8,26.3,00.0,39.0,31.3,15.4,0031.91,0022.22
